Preview of NWS' New Version of Forecast
This preview is not operational and should not be used for support decisions.
Latest weather observations around

Macon, Middle Georgia Regional Airport (KMCN)

Using English Units (Switch to International System of Units)
Date/ Time (EDT) Wind (mph) Vis. (mi) Weather Sky Cond. Temp (°F) Rel. Humidity Wind Chill (°F) Heat Index (°F) Pressure Precip. (in)
Air Dwpt 6 hour Altimeter (inHg) Sea level (inHg) 1 hr 3 hr 6 hr
Max Min
Jun 19 15:53 W 10 10 Mostly Clear FEW048 91 68     47%   95 29.83 29.81      
Jun 19 14:53 W 11 10 Clear CLR 90 69     50%   95 29.85 29.84      
Jun 19 13:53 WNW 9 10 Partly Cloudy FEW033 SCT043 SCT050 89 71     55%   95 29.87 29.86     0
Jun 19 12:53 WNW 10 10 Clear CLR 86 72     63%   92 29.88 29.87      
Jun 19 11:53 WSW 7 10 Mostly Cloudy BKN100 81 74     79%   86 29.9 29.88 0    
Jun 19 11:13 W 5 6 Light Rain and Fog/Mist FEW014 BKN040 OVC080 76 73     91%   77 29.92   0    
Jun 19 11:09 WNW 6 2.5 Light Rain and Fog/Mist SCT016 BKN026 OVC080 75 72     90%   76 29.92   0    
Jun 19 10:53 W 11 9 Cloudy SCT014 BKN021 OVC045 80 73     79%   84 29.92 29.91 0 0  
Jun 19 10:41 SW 10 10 Cloudy BKN019 OVC041 79 73     82%   82 29.92   0    
Jun 19 10:21 SW 6 10 Cloudy SCT014 SCT022 OVC039 78 74     87%   80 29.92   0    
Jun 19 10:02 SSW 9 10 Cloudy BKN014 BKN021 OVC032 78 73     85%   80 29.92        
Jun 19 09:53 SSW 9 10 Mostly Cloudy SCT014 BKN022 BKN027 79 73     82%   82 29.92 29.91      
Jun 19 09:37 SW 5 10 Mostly Cloudy BKN016 BKN024 79 74     85%   83 29.92        
Jun 19 08:53 SW 6 10 Cloudy OVC011 76 72     88%   77 29.92 29.91      
Jun 19 08:17 5 10 Cloudy OVC010 75 72     90%   76 29.92        
Jun 19 07:53 SW 5 10 Cloudy OVC009 74 72     94%   75 29.92 29.91 0   0
Jun 19 06:53 Calm 10 Cloudy OVC009 74 71     91%   75 29.92 29.91      
Jun 19 06:15 Calm 10 Cloudy OVC009 74 71     91%   75 29.92        
Jun 19 05:53 SSE 3 10 Cloudy OVC011 73 71     94%   74 29.92 29.91      
Jun 19 04:53 Calm 10 Mostly Cloudy BKN014 72 70     93%   73 29.92 29.91      
Jun 19 04:44 Calm 10 Partly Cloudy SCT010 SCT020 72 70     93%   73 29.92        
Jun 19 04:32 Calm 10 Mostly Cloudy BKN010 72 70     93%   73 29.92        
Jun 19 03:53 Calm 10 Mostly Cloudy BKN007 72 70     93%   73 29.92 29.9      
Jun 19 03:42 Calm 10 Mostly Cloudy BKN008 72 70     93%   73 29.92        
Jun 19 03:23 Calm 10 Partly Cloudy SCT009 72 70     93%   73 29.92        
Jun 19 02:53 Calm 10 Clear CLR 73 70     90%   74 29.92 29.9      
Jun 19 01:53 Calm 10 Clear CLR 73 70     90%   74 29.93 29.92      
Jun 19 01:02 SE 5 10 Mostly Clear FEW011 73 70     90%   74 29.95        
Jun 19 00:53 SSE 3 10 Mostly Cloudy BKN011 73 70     90%   74 29.95 29.93      
Jun 19 00:28 Calm 10 Mostly Cloudy BKN012 73 71     94%   74 29.95        
Jun 18 23:53 Calm 10 Clear CLR 73 70     90%   74 29.95 29.94      
Jun 18 22:53 Calm 10 Clear CLR 72 70     93%   73 29.94 29.93      
Jun 18 21:53 SSW 3 10 Mostly Clear FEW120 73 70     90%   74 29.95 29.93      
Jun 18 20:53 SW 3 10 Mostly Clear FEW100 73 70     90%   74 29.96 29.95      
Jun 18 19:53 Calm 10 Clear CLR 74 69     85%   75 29.96 29.94     2
Jun 18 18:53 NW 8 10 Cloudy SCT050 BKN065 OVC100 73 70     90%   74 29.96 29.95 1    
Jun 18 18:34 NW 8 10 Cloudy FEW032 BKN045 OVC065 73 70     90%   74 29.97   1    
Jun 18 18:20 NW 9 8 Thunderstorms and Rain SCT006 BKN036 OVC043 73 70     90%   74 29.97   1    
Jun 18 18:11 NW 11 1 Thunderstorms and Rain and Fog/Mist SCT006 SCT014 OVC036 74 70     87%   75 29.96   1    
Jun 18 18:05 NW 13 0.5 Thunderstorms and Heavy Rain and Fog BKN006 BKN014 OVC036 72 70     93%   73 29.96   1    
Jun 18 18:02   0.25 Thunderstorms and Heavy Rain and Fog BKN006 BKN014 OVC038 73 70     90%   74 29.97   1    
Jun 18 17:56   0.75 Thunderstorms and Heavy Rain and Fog/Mist FEW008 SCT013 OVC038 74 70     87%   75 29.97   0    
Jun 18 17:53   1.75 Thunderstorms and Rain FEW013 OVC038 76 71     85%   77 29.96 29.95 0    
Jun 18 17:48 W 9 10 Cloudy OVC038 79 72     79%   82 29.94        
Jun 18 17:33 E 6 10 Thunderstorms BKN042 80 72     76%   84 29.93        
Jun 18 16:55 ENE 7 10 Partly Cloudy FEW070 SCT095 82 75     79%   89 29.92        
Jun 18 16:53 ENE 8 10 Partly Cloudy SCT070 SCT095 82 74     77%   88 29.92 29.91 0 0  
Jun 18 16:46 E 6 10 Partly Cloudy SCT070 83 75     77%   90 29.92   0    
Jun 18 16:23 Calm 10 Light Rain SCT070 BKN085 82 74     77%   88 29.93   0    
Jun 18 16:16 ESE 3 10 Mostly Cloudy FEW048 SCT060 BKN085 82 75     79%   89 29.93   0    
Jun 18 16:01 NNE 8 10 Mostly Cloudy FEW019 BKN050 BKN075 81 74     79%   86 29.93   0    
Jun 18 15:53   2.5 Light Rain FEW017 BKN043 BKN050 82 72     72%   87 29.94 29.92 0    
Jun 18 15:45 E 7 2.5 Light Rain FEW024 BKN041 OVC050 79 74     85%   83 29.94   0    
Jun 18 14:53 3 10 Partly Cloudy FEW043 SCT110 88 70     55%   93 29.94 29.92      
Jun 18 13:53 SE 6 10 Partly Cloudy FEW040 SCT085 88 70     55%   93 29.96 29.94      
Jun 18 12:53 ESE 7 10 Mostly Cloudy SCT031 BKN090 88 70     55%   93 29.98 29.96      
Jun 18 11:53 WSW 5 10 Cloudy SCT027 OVC085 85 70     61%   89 30.01 29.98      
Jun 18 11:41 SW 6 10 Mostly Cloudy BKN027 BKN080 86 71     61%   92 30.01        
Jun 18 11:00 Calm 10 Mostly Cloudy SCT023 BKN030 BKN046 83 71     67%   88 30.02        
Jun 18 10:53 SW 5 10 Mostly Cloudy FEW021 BKN029 BKN046 84 71     65%   89 30.02 30      
Jun 18 09:53 3 10 Mostly Cloudy FEW023 BKN046 81 71     72%   85 30.02 30.01      
Jun 18 09:43 WSW 5 10 Cloudy FEW015 SCT025 OVC046 80 71     74%   84 30.03        
Jun 18 09:06 SSW 7 10 Mostly Cloudy FEW015 BKN026 78 71     79%   79 30.03        
Jun 18 08:53 SSW 7 10 Mostly Clear FEW024 79 71     77%   82 30.03 30.01      
Jun 18 07:53 S 3 10 Clear CLR 76 70     82%   77 30.03 30.01      
Jun 18 07:26 SSE 3 10 Mostly Cloudy SCT026 BKN037 BKN045 75 70     84%   76 30.02        
Jun 18 07:19 SSE 5 10 Cloudy BKN026 BKN034 OVC042 75 70     84%   76 30.02        
Jun 18 06:53 SE 5 10 Mostly Cloudy FEW027 BKN033 74 70     87%   75 30.02 30.01      
Jun 18 06:45   10 Mostly Cloudy SCT027 BKN032 74 70     87%   75 30.03        
Jun 18 05:53 ESE 5 10 Cloudy OVC026 74 70     87%   75 30.02 30      
Jun 18 05:18 SE 5 10 Mostly Cloudy BKN027 BKN033 74 70     87%   75 30.01        
Jun 18 04:53 SE 5 10 Mostly Clear FEW031 73 69     87%   74 30 29.98      
Jun 18 03:53 SSE 5 10 Clear CLR 74 69     85%   75 30 29.98      
Jun 18 02:53 Calm 10 Partly Cloudy SCT080 76 69     79%   77 30.02 30      
Jun 18 01:53 S 6 10 Cloudy BKN060 OVC080 78 69     74%   79 30.04 30.02      
Jun 18 00:53 S 5 10 Mostly Clear FEW055 79 69     72%   80 30.04 30.02      
Jun 17 23:53 S 5 10 Clear CLR 80 69     69%   83 30.05 30.03      
Jun 17 22:53 S 8 10 Clear CLR 82 68     63%   85 30.03 30.01      
Jun 17 21:53 SE 13 10 Mostly Cloudy BKN055 BKN070 84 67     57%   87 30.02 30      
Jun 17 20:53 S 6 10 Clear CLR 85 67     55%   88 29.99 29.97      
Jun 17 19:53 SSE 8 10 Clear CLR 88 66     48%   90 29.99 29.97      
Jun 17 18:53 SSE 9 10 Clear CLR 92 66     43%   95 29.97 29.95      
Jun 17 17:53 S 7 10 Partly Cloudy FEW055 SCT070 SCT110 93 67     43%   97 29.97 29.95      
Jun 17 16:53 SSE 9 10 Mostly Clear FEW060 94 66     40%   97 29.98 29.96      
Jun 17 15:53 SSE 5 10 Mostly Cloudy BKN055 94 68     43%   99 30 29.98      
Jun 17 14:53 5 10 Mostly Cloudy BKN050 92 70     49%   98 30.02 30      
Jun 17 13:53 3 10 Mostly Cloudy FEW042 BKN090 87 71     59%   93 30.04 30.03 0   0
Jun 17 12:53 ENE 7 10 Mostly Cloudy FEW037 SCT065 BKN080 90 71     54%   96 30.06 30.04      
Jun 17 11:53 SE 6 10 Clear CLR 89 71     55%   95 30.07 30.05      
Jun 17 10:53 NE 5 10 Partly Cloudy FEW028 SCT036 88 71     57%   94 30.07 30.06      
Jun 17 09:53 NW 6 10 Clear CLR 84 71     65%   89 30.07 30.06      
Jun 17 08:53 SW 7 10 Clear CLR 80 70     71%   83 30.06 30.04      
Jun 17 07:53 Calm 10 Clear CLR 77 69     77%   78 30.05 30.03      
Jun 17 06:53 Calm 10 Clear CLR 71 68     90%   72 30.02 30.01      
Jun 17 05:53 SE 5 10 Clear CLR 71 68     90%   72 30.01 29.99      
Jun 17 04:53 SE 5 10 Clear CLR 72 68     87%   73 30 29.98      
Jun 17 03:53 Calm 10 Clear CLR 73 69     87%   74 30.02 30      
Jun 17 02:53 ESE 7 10 Clear CLR 74 69     85%   75 30.03 30.01      
Jun 17 01:53 SSE 3 10 Clear   75 68     79%   76 30.04 30.02      
Jun 17 00:53 Calm 10 Clear CLR 76 68     76%   77 30.04 30.02      
Jun 16 23:53 S 7 10 Clear CLR 77 68     74%   78 30.02 30.01      
Jun 16 22:53 Calm 10 Clear CLR 78 67     69%   79 30.02 30      
Jun 16 21:53 ESE 6 10 Clear CLR 80 67     64%   82 30 29.98      
Jun 16 20:53 SE 3 10 Mostly Cloudy BKN070 82 68     63%   85 30 29.98      
Jun 16 19:53 Calm 10 Clear CLR 88 66     48%   90 29.99 29.97      
Jun 16 18:53 ESE 6 10 Mostly Clear FEW070 92 64     40%   94 29.97 29.96      
Jun 16 17:53 SSE 7 10 Mostly Clear FEW070 92 65     41%   94 29.98 29.96      
Jun 16 16:53 3 10 Clear CLR 92 65     41%   94 29.98 29.96      
Jun 16 15:53 S 6 10 Partly Cloudy FEW080 SCT095 90 65     44%   92 30 29.99      
Notice The following observation data may not be complete
May 15 13:58   10 Cloudy SCT013 BKN018 OVC033          %              
May 14 12:53 E 7 10 Clear CLR 86 67     53%   89 30.04 30.02      
May 14 11:53 SE 3 10 Clear CLR 84 66     55%   86 30.05 30.03      
May 12 09:53 N 5 10 Mostly Clear FEW085 83 64     53%   84 30.16 30.14      
May 11 22:53 Calm 10 Clear CLR 72 67     84%   73 30.09 30.07      
Jun 12 08:03 Calm 10 Cloudy BKN009 BKN050 OVC120 73 71     94%   74 30.18        
Jun 11 15:53 ENE 3 10 Clear   83 72     70%   88 30.17 30.15 0    
Notice The following observation data may not be complete
Jun 11 14:53 ENE 5 4 Rain BKN035 BKN050 OVC065   70      %     30.19   0    
Jun 11 02:53 ESE 6 10 Clear CLR 71 67     87%   72 30.13 30.11      
Jun 10 14:53 SE 8 10 Mostly Clear FEW060 88 58     36%   87 30.1 30.08      
Jun 10 02:53 SSE 5 10 Mostly Clear FEW090 69 61     75%     30.02 30.01      
Jun 09 16:53 5 10 Clear CLR 86 54     33%   84 29.94 29.92      
Jun 07 09:23   3 Rain and Fog/Mist BKN009 BKN014 OVC032 67 64     90%     29.79   0